Location: NJAA Observatory
(40.6819°N, 74.8979°W)
Time: 20:58:36
(UTC-05:00)

Vanguard 1 - All Passes

Search period start: 07 February 2016 00:00
Search period end: 17 February 2016 00:00
Orbit: 650 x 3834 km, 34.2° (Epoch: 06 February)

Date Brightness Start Highest point End Pass type
(mag) Time Alt. Az. Time Alt. Az. Time Alt. Az.
07 Feb - 00:06:00 10° SSW 00:09:36 21° SSE 00:14:13 10° E night (unlit)
07 Feb - 02:23:24 10° WSW 02:28:59 52° S 02:38:40 10° E visible
07 Feb - 04:42:20 10° W 04:50:00 52° S 05:04:07 10° ESE visible
07 Feb - 07:02:47 10° W 07:12:30 32° SSW 07:27:46 10° SSE daylight
07 Feb - 09:31:30 10° SW 09:35:58 11° SW 09:40:53 10° SSW daylight
08 Feb - 00:26:11 10° SSW 00:30:15 28° SSE 00:35:52 10° E night (unlit)
08 Feb - 02:44:13 10° WSW 02:49:59 54° S 03:00:07 10° ESE visible
08 Feb - 05:03:22 10° W 05:11:11 46° SSW 05:25:13 10° SE visible
08 Feb - 07:24:35 10° WSW 07:33:47 25° SSW 07:47:20 10° SSE daylight
09 Feb - 00:46:39 10° SW 00:51:01 36° SSE 00:57:20 10° E night (unlit)
09 Feb - 03:05:04 10° WSW 03:11:00 53° S 03:21:31 10° ESE visible
09 Feb - 05:24:28 10° W 05:32:23 39° SSW 05:46:02 10° SE visible
09 Feb - 07:47:00 10° WSW 07:55:06 19° SSW 08:06:02 10° S daylight
09 Feb - 22:50:48 10° S 22:52:47 13° SSE 22:54:53 10° ESE night (unlit)
10 Feb - 01:07:17 10° WSW 01:11:52 42° SSE 01:18:43 10° E visible
10 Feb - 03:25:59 10° W 03:32:04 50° S 03:42:50 10° ESE visible
10 Feb - 05:45:46 10° W 05:53:36 32° SSW 06:06:28 10° SSE visible
10 Feb - 08:10:55 10° WSW 08:16:26 13° SW 08:23:01 10° SSW daylight
10 Feb - 23:10:21 10° SSW 23:13:29 19° SSE 23:17:00 10° ESE night (unlit)
11 Feb - 01:28:02 10° WSW 01:32:45 47° S 01:40:03 10° E visible
11 Feb - 03:46:57 10° W 03:53:09 45° S 04:03:59 10° SE visible
11 Feb - 06:07:19 10° WSW 06:14:51 26° SSW 06:26:25 10° SSE visible
11 Feb - 23:30:33 10° SW 23:34:14 25° SSE 23:38:33 10° ESE night (unlit)
12 Feb - 01:48:52 10° WSW 01:53:43 48° S 02:01:21 10° ESE visible
12 Feb - 04:08:00 10° W 04:14:15 38° SSW 04:24:55 10° SE visible
12 Feb - 06:29:21 10° WSW 06:36:07 19° SSW 06:45:39 10° S visible
12 Feb - 23:51:04 10° SW 23:55:01 32° SSE 23:59:53 10° E night (unlit)
13 Feb - 02:09:45 10° WSW 02:14:41 46° S 02:22:35 10° ESE visible
13 Feb - 04:29:10 10° WSW 04:35:24 32° SSW 04:45:33 10° SE visible
13 Feb - 06:52:28 10° SW 06:57:25 14° SSW 07:03:36 10° S daylight
13 Feb - 21:54:21 10° S 21:56:37 13° SSE 21:58:49 10° SE night (unlit)
14 Feb - 00:11:45 10° WSW 00:15:53 38° S 00:21:08 10° ESE night (unlit)
14 Feb - 02:30:41 10° WSW 02:35:42 42° S 02:43:42 10° ESE visible
14 Feb - 04:50:34 10° WSW 04:56:34 25° SSW 05:05:46 10° SSE visible
14 Feb - 22:14:08 10° SSW 22:17:26 19° SSE 22:20:39 10° ESE night (unlit)
15 Feb - 00:32:33 10° WSW 00:36:47 41° S 00:42:19 10° ESE night (unlit)
15 Feb - 02:51:41 10° WSW 02:56:43 36° S 03:04:41 10° SE visible
15 Feb - 05:12:21 10° WSW 05:17:46 19° SSW 05:25:22 10° SSE visible
15 Feb - 22:34:28 10° SW 22:38:16 25° SSE 22:42:03 10° ESE night (unlit)
16 Feb - 00:53:26 10° WSW 00:57:42 42° S 01:03:28 10° ESE night (unlit)
16 Feb - 03:12:48 10° WSW 03:17:46 30° SSW 03:25:25 10° SE visible
16 Feb - 05:35:04 10° SW 05:38:59 13° SSW 05:43:52 10° S visible
16 Feb - 20:37:47 10° S 20:39:34 12° SSE 20:41:13 10° SE visible
16 Feb - 22:55:05 10° SW 22:59:08 31° SSE 23:03:15 10° ESE night (unlit)
